星链-4398 (STARLINK-4398 )

导读 | 豆包AI

STARLINK-4398是由美国于2022年8月12日发射的星链卫星,星链是SpaceX打造的低轨卫星互联网星座计划,通过大规模部署卫星实现全球高速互联网覆盖。STARLINK-4398的成功发射进一步扩充了星链星座规模,助力提升星座服务覆盖范围与网络传输性能。

Basic Information
目录编号:
53466
目录名称:
STARLINK-4398
国际标识:
2022-099B
轨道中心:
EARTH
卫星名称:
星链-4398
卫星全名:
星链-4398 (STARLINK-4398 )
卫星状态:
在轨 (已飞行1311 天)
发射日期:
2022-08-12 UTC
国别 :
美国 (US)
星等 :
--
Orbit Information
数据来源 国际轨道数据
星历时间: 2026-03-15T06:00:02+0800
10小时前
查看轨道信息
半长轴: 6932.135km
偏心率: 0.0001327
轨道倾角: 97.603°
近地点辐角 103.061°
升交点赤经 195.339°
平近点角 223.699°
近地点: 553.078km
远地点: 554.918km
周期: 95.733分钟
每日圈数: 15.041887
Detailed Information
固有亮度:
5
最大亮度:
2.5
卫星平台:
Starlink v1.5
覆盖范围:
全球
运营商:
太空探索技术公司
运营商所在国:
美国
制造商(研发单位):
太空探索技术公司
制造商所在国:
美国
使用方式:
暂无
Satellite Introduction
星链(Starlink)计划是由太空探索技术公司(SpaceX)提出的一个巨型低轨卫星互联网星座项目,计划在2019年至2024年间在太空搭建由约1.2万颗卫星组成的“星链”网络,其中1584颗将部署在地球上空550千米处的近地轨道,并从2020年开始工作。该卫星仍在工作。
2D Orbit Map
3D Orbit Map
Orbit Altitude Analysis Chart
Orbit Inclination Analysis Chart
Orbit Comprehensive Analysis Chart
View Comprehensive Chart